map of UIO home
Great Circle Mapper logo
UIO - Airport
Location
City:  Quito, Pichincha, Ecuador
Near (Alt.):Tababela
Name:Mitad del Mundo International Airport
ICAO / IATA:SEQM / UIO

Details
Type:Airport (Aerodrome, Airfield)
Use:Public/Civil, International (customs port of entry)
Latitude:006'48"S (-0.113332)
Longitude:7821'31"W (-78.358610)
Elevation:7874 ft (2400 m)
Runways:1
Longest:13451 ft (4100 m), paved

Weather
METAR:SEQM 201200Z 12003KT 9999 BKN030 OVC100 13/12 Q1027 NOSIG RMK A3034
TAF:SEQM 200420Z 2006/2106 16002KT 8000 BCFG FEW008 BKN020
TEMPO 2008/2011 4000 BR
FM201200 VRB03KT 9999 SCT033 SCT100
FM201800 35010KT 9999 BKN030 SCT100
TEMPO 2020/2023 8000 SHRA BKN030 BKN100
FM210000 18002KT 9999 VCFG SCT010 BKN020 TX23/2019Z TN11/2011Z

Related Locations
Nearby:
Farthest:PKU: 12437 mi / 20015 km
Pekanbaru [Sultan Syarif Kasim II (Simpang Tiga)], Riau, ID

Find:

   beyond  
but within

Other Information
Maps:
NOTAMs:
Links:
Sources:

  
flag of Ecuador   

Sectional Chart

Flight Planning
at skyvector.com

Satellite Image

Google Maps Satellite View

 

Copyright © 2004-2014 Karl L. Swartz. All rights reserved.
The Great Circle Mapper name and logo are trademarks of the Great Circle Mapper.
All other trademarks mentioned herein belong to their respective owners.
Please see credits for attibutions and further copyright information.

  Follow gcmap on Facebook Follow gcmap on Twitter

hCard Microformat

Geo Microformat